,,Stat5,,Stat1,,Stat2,,Stat3,,Stat4,,Wind1,,Wind1,
time,status,PA1M_AVG,status,PR1M_SUM,status,RH1M_AVG,status,SR1M_AVG,status,TA1M_AVG,status,W1dAve1m,status,W1sAve1m,
2000-09-18, 00:00:00,VALID,917.608,VALID,0,VALID,96.3876,VALID,0,VALID,19.2964,VALID,153,VALID,0.0200321,
2000-09-18, 00:01:00,VALID,917.598,VALID,0,VALID,96.8619,VALID,-0.0339617,VALID,19.3422,VALID,153,VALID,0,
2000-09-18, 00:02:00,VALID,917.592,VALID,0,VALID,97.1633,VALID,-0.0509425,VALID,19.3812,VALID,153,VALID,0,
2000-09-18, 00:03:00,VALID,917.606,VALID,0,VALID,97.19,VALID,-0.0169808,VALID,19.3812,VALID,153,VALID,0,
2000-09-18, 00:04:00,VALID,917.616,VALID,0,VALID,96.7564,VALID,-0.0169808,VALID,19.32,VALID,153,VALID,0,
2000-09-18, 00:05:00,VALID,917.63,VALID,0,VALID,96.6013,VALID,-0.0339617,VALID,19.2679,VALID,153,VALID,0,
2000-09-18, 00:06:00,VALID,917.632,VALID,0,VALID,96.8123,VALID,-0.0509425,VALID,19.2778,VALID,153,VALID,0,
2000-09-18, 00:07:00,VALID,917.655,VALID,0,VALID,97.0234,VALID,0,VALID,19.2808,VALID,136,VALID,0,
2000-09-18, 00:08:00,VALID,917.666,VALID,0,VALID,97.1442,VALID,0.0169808,VALID,19.2741,VALID,113,VALID,0,
2000-09-18, 00:09:00,VALID,917.68,VALID,0,VALID,97.1773,VALID,0,VALID,19.2619,VALID,117,VALID,0,
2000-09-18, 00:10:00,VALID,917.694,VALID,0,VALID,97.2612,VALID,-0.0339617,VALID,19.2554,VALID,117,VALID,0,
2000-09-18, 00:11:00,VALID,917.71,VALID,0,VALID,97.2981,VALID,-0.0679233,VALID,19.2656,VALID,117,VALID,0,
2000-09-18, 00:12:00,VALID,917.706,VALID,0,VALID,97.3083,VALID,-0.0679233,VALID,19.2517,VALID,117,VALID,0,
2000-09-18, 00:13:00,VALID,917.706,VALID,0,VALID,97.3121,VALID,-0.0339617,VALID,19.2614,VALID,117,VALID,0.130609,
2000-09-18, 00:14:00,VALID,917.703,VALID,0,VALID,97.2282,VALID,-0.0509425,VALID,19.2748,VALID,118,VALID,0.768359,
2000-09-18, 00:15:00,VALID,917.7,VALID,0,VALID,97.0514,VALID,-0.0169808,VALID,19.2741,VALID,121,VALID,0.750206,
2000-09-18, 00:16:00,VALID,917.684,VALID,0,VALID,96.8619,VALID,-0.0169808,VALID,19.3073,VALID,127,VALID,0.732525,
2000-09-18, 00:17:00,VALID,917.664,VALID,0,VALID,96.6674,VALID,-0.0169808,VALID,19.3069,VALID,127,VALID,0.63014,
2000-09-18, 00:18:00,VALID,917.653,VALID,0,VALID,96.4805,VALID,-0.0509425,VALID,19.3103,VALID,121,VALID,0.510074,
2000-09-18, 00:19:00,VALID,917.627,VALID,0,VALID,96.4181,VALID,-0.0339617,VALID,19.2972,VALID,121,VALID,0.348273,
2000-09-18, 00:20:00,VALID,917.603,VALID,0,VALID,96.2935,VALID,-0.0169808,VALID,19.2835,VALID,121,VALID,0.0935444,
2000-09-18, 00:21:00,VALID,917.596,VALID,0,VALID,96.113,VALID,-0.0169808,VALID,19.2706,VALID,121,VALID,0,
2000-09-18, 00:22:00,VALID,917.571,VALID,0,VALID,96.0583,VALID,-0.0169808,VALID,19.2773,VALID,146,VALID,0,
2000-09-18, 00:23:00,VALID,917.555,VALID,0,VALID,96.0303,VALID,0,VALID,19.2778,VALID,210,VALID,0,
2000-09-18, 00:24:00,VALID,917.515,VALID,0,VALID,96.1206,VALID,0,VALID,19.2872,VALID,229,VALID,0,
2000-09-18, 00:25:00,VALID,917.502,VALID,0,VALID,96.1982,VALID,0,VALID,19.3002,VALID,230,VALID,0,
2000-09-18, 00:26:00,VALID,917.467,VALID,0,VALID,96.2592,VALID,0,VALID,19.3066,VALID,234,VALID,0,
2000-09-18, 00:27:00,VALID,917.446,VALID,0,VALID,96.2783,VALID,-0.0339617,VALID,19.3161,VALID,242,VALID,0,
2000-09-18, 00:28:00,VALID,917.419,VALID,0,VALID,96.2923,VALID,-0.0339617,VALID,19.3364,VALID,241,VALID,0,
2000-09-18, 00:29:00,VALID,917.389,VALID,0,VALID,96.3164,VALID,0,VALID,19.3265,VALID,241,VALID,0,
2000-09-18, 00:30:00,VALID,917.372,VALID,0,VALID,96.2973,VALID,-0.0339617,VALID,19.3265,VALID,229,VALID,0,
2000-09-18, 00:31:00,VALID,917.35,VALID,0,VALID,96.2579,VALID,-0.0509425,VALID,19.3292,VALID,194,VALID,0,
2000-09-18, 00:32:00,VALID,917.333,VALID,0,VALID,96.2121,VALID,-0.0509425,VALID,19.3071,VALID,180,VALID,0,
2000-09-18, 00:33:00,VALID,917.313,VALID,0,VALID,96.3775,VALID,-0.0679233,VALID,19.2743,VALID,182,VALID,0,
2000-09-18, 00:34:00,VALID,917.297,VALID,0,VALID,96.4919,VALID,0,VALID,19.2388,VALID,198,VALID,0,
2000-09-18, 00:35:00,VALID,917.286,VALID,0,VALID,96.6979,VALID,0,VALID,19.2097,VALID,203,VALID,0,
2000-09-18, 00:36:00,VALID,917.261,VALID,0,VALID,96.8251,VALID,-0.0169808,VALID,19.2104,VALID,220,VALID,0,
2000-09-18, 00:37:00,VALID,917.254,VALID,0,VALID,96.9293,VALID,0,VALID,19.1869,VALID,217,VALID,0,
2000-09-18, 00:38:00,VALID,917.247,VALID,0,VALID,97.0412,VALID,0,VALID,19.1841,VALID,217,VALID,0.822461,
2000-09-18, 00:39:00,VALID,917.247,VALID,0,VALID,97.1277,VALID,0,VALID,19.1739,VALID,200,VALID,0.765831,
2000-09-18, 00:40:00,VALID,917.256,VALID,0,VALID,97.2116,VALID,0,VALID,19.1744,VALID,185,VALID,0.800987,
2000-09-18, 00:41:00,VALID,917.255,VALID,0,VALID,97.3006,VALID,0,VALID,19.1546,VALID,169,VALID,0.942229,
2000-09-18, 00:42:00,VALID,917.263,VALID,0,VALID,97.3566,VALID,-0.0169808,VALID,19.1513,VALID,162,VALID,0.875206,
2000-09-18, 00:43:00,VALID,917.276,VALID,0,VALID,97.471,VALID,-0.0169808,VALID,19.158,VALID,161,VALID,0.94634,
2000-09-18, 00:44:00,VALID,917.27,VALID,0,VALID,97.5651,VALID,0,VALID,19.1841,VALID,162,VALID,0.709293,
2000-09-18, 00:45:00,VALID,917.268,VALID,0,VALID,97.5829,VALID,0,VALID,19.1839,VALID,162,VALID,0.80028,
2000-09-18, 00:46:00,VALID,917.279,VALID,0,VALID,97.4914,VALID,-0.0339617,VALID,19.1772,VALID,160,VALID,0.691602,
2000-09-18, 00:47:00,VALID,917.264,VALID,0,VALID,97.4125,VALID,-0.0169808,VALID,19.158,VALID,166,VALID,0.632607,
2000-09-18, 00:48:00,VALID,917.248,VALID,0,VALID,97.3426,VALID,-0.0169808,VALID,19.1389,VALID,175,VALID,0.583059,
2000-09-18, 00:49:00,VALID,917.234,VALID,0,VALID,97.2015,VALID,-0.0169808,VALID,19.1225,VALID,185,VALID,0.678454,
2000-09-18, 00:50:00,VALID,917.202,VALID,0,VALID,97.0349,VALID,-0.0169808,VALID,19.1195,VALID,196,VALID,0.803865,
2000-09-18, 00:51:00,VALID,917.187,VALID,0,VALID,96.8632,VALID,-0.0509425,VALID,19.1297,VALID,200,VALID,0.721012,
2000-09-18, 00:52:00,VALID,917.166,VALID,0,VALID,96.6458,VALID,-0.0169808,VALID,19.1327,VALID,211,VALID,0.584293,
2000-09-18, 00:53:00,VALID,917.151,VALID,0,VALID,96.3813,VALID,-0.0339617,VALID,19.1449,VALID,201,VALID,0.644431,
2000-09-18, 00:54:00,VALID,917.134,VALID,0,VALID,96.1371,VALID,0,VALID,19.1483,VALID,206,VALID,0.600195,
2000-09-18, 00:55:00,VALID,917.107,VALID,0,VALID,95.879,VALID,0,VALID,19.161,VALID,205,VALID,0.39412,
2000-09-18, 00:56:00,VALID,917.101,VALID,0,VALID,95.8065,VALID,-0.0169808,VALID,19.1804,VALID,182,VALID,0.129934,
2000-09-18, 00:57:00,VALID,917.083,VALID,0,VALID,95.687,VALID,0.0169808,VALID,19.1968,VALID,182,VALID,0,
2000-09-18, 00:58:00,VALID,917.072,VALID,0,VALID,95.6069,VALID,0,VALID,19.2,VALID,182,VALID,0,
2000-09-18, 00:59:00,VALID,917.07,VALID,0,VALID,95.5331,VALID,0,VALID,19.2067,VALID,182,VALID,0,
2000-09-18, 01:00:00,VALID,917.074,VALID,0,VALID,95.4746,VALID,-0.0169808,VALID,19.1931,VALID,182,VALID,0,
2000-09-18, 01:01:00,VALID,917.073,VALID,0,VALID,95.3487,VALID,0,VALID,19.1966,VALID,182,VALID,0,
2000-09-18, 01:02:00,VALID,917.057,VALID,0,VALID,95.3246,VALID,0,VALID,19.2171,VALID,154,VALID,0,
2000-09-18, 01:03:00,VALID,917.054,VALID,0,VALID,95.0766,VALID,0,VALID,19.1936,VALID,128,VALID,0,
2000-09-18, 01:04:00,VALID,917.044,VALID,0,VALID,94.8808,VALID,0,VALID,19.1516,VALID,128,VALID,0,
2000-09-18, 01:05:00,VALID,917.041,VALID,0,VALID,94.9571,VALID,-0.0509425,VALID,19.1262,VALID,128,VALID,0,
2000-09-18, 01:06:00,VALID,917.025,VALID,0,VALID,95.0308,VALID,0.0169808,VALID,19.1135,VALID,128,VALID,0,
2000-09-18, 01:07:00,VALID,917.02,VALID,0,VALID,95.2241,VALID,-0.0169808,VALID,19.0905,VALID,128,VALID,0,
2000-09-18, 01:08:00,VALID,917.006,VALID,0,VALID,95.4034,VALID,0,VALID,19.0842,VALID,128,VALID,0,
2000-09-18, 01:09:00,VALID,917.013,VALID,0,VALID,95.3576,VALID,0,VALID,19.0641,VALID,131,VALID,0,
2000-09-18, 01:10:00,VALID,916.994,VALID,0,VALID,95.3462,VALID,-0.0169808,VALID,19.0455,VALID,193,VALID,0,
2000-09-18, 01:11:00,VALID,917.001,VALID,0,VALID,95.3958,VALID,-0.0169808,VALID,19.0132,VALID,206,VALID,0,
2000-09-18, 01:12:00,VALID,917.004,VALID,0,VALID,95.4555,VALID,0,VALID,19.0003,VALID,207,VALID,0.0316612,
2000-09-18, 01:13:00,VALID,916.999,VALID,0,VALID,95.5267,VALID,-0.0339617,VALID,18.9871,VALID,203,VALID,0.429893,
2000-09-18, 01:14:00,VALID,916.996,VALID,0,VALID,95.7073,VALID,0,VALID,18.9811,VALID,202,VALID,0.753701,
2000-09-18, 01:15:00,VALID,916.977,VALID,0,VALID,95.706,VALID,-0.0169808,VALID,18.968,VALID,198,VALID,0.615543,
2000-09-18, 01:16:00,VALID,916.966,VALID,0,VALID,95.7391,VALID,-0.0169808,VALID,18.9617,VALID,199,VALID,0.762541,
2000-09-18, 01:17:00,VALID,916.94,VALID,0,VALID,95.7607,VALID,-0.0339617,VALID,18.926,VALID,199,VALID,0.363782,
2000-09-18, 01:18:00,VALID,916.938,VALID,0,VALID,95.7862,VALID,-0.0339617,VALID,18.9038,VALID,197,VALID,0.558789,
2000-09-18, 01:19:00,VALID,916.946,VALID,0,VALID,96.2071,VALID,-0.0169808,VALID,18.8974,VALID,195,VALID,0.906044,
2000-09-18, 01:20:00,VALID,916.96,VALID,0,VALID,96.427,VALID,0,VALID,18.9163,VALID,191,VALID,1.01028,
2000-09-18, 01:21:00,VALID,916.97,VALID,0,VALID,96.2427,VALID,0,VALID,18.9128,VALID,193,VALID,1.11883,
2000-09-18, 01:22:00,VALID,916.964,VALID,0,VALID,96.099,VALID,0,VALID,18.9034,VALID,195,VALID,0.947163,
2000-09-18, 01:23:00,VALID,916.977,VALID,0,VALID,96.1816,VALID,-0.0339617,VALID,18.8912,VALID,194,VALID,0.959704,
2000-09-18, 01:24:00,VALID,916.985,VALID,0,VALID,96.3711,VALID,-0.0169808,VALID,18.8711,VALID,195,VALID,0.860403,
2000-09-18, 01:25:00,VALID,916.989,VALID,0,VALID,96.38,VALID,-0.0169808,VALID,18.8748,VALID,199,VALID,0.744191,
2000-09-18, 01:26:00,VALID,916.998,VALID,0,VALID,96.4283,VALID,-0.0169808,VALID,18.8551,VALID,201,VALID,0.397852,
2000-09-18, 01:27:00,VALID,916.988,VALID,0,VALID,96.5606,VALID,0,VALID,18.8418,VALID,213,VALID,0.619655,
2000-09-18, 01:28:00,VALID,916.99,VALID,0,VALID,96.717,VALID,0,VALID,18.8618,VALID,215,VALID,0.762336,
2000-09-18, 01:29:00,VALID,916.979,VALID,0,VALID,96.7297,VALID,0,VALID,18.8455,VALID,207,VALID,0.521382,
2000-09-18, 01:30:00,VALID,916.997,VALID,0,VALID,96.839,VALID,0.0509425,VALID,18.8353,VALID,204,VALID,0.352179,
2000-09-18, 01:31:00,VALID,917.001,VALID,0,VALID,97.0272,VALID,0,VALID,18.8422,VALID,191,VALID,0.80366,
2000-09-18, 01:32:00,VALID,916.998,VALID,0,VALID,97.3197,VALID,0,VALID,18.8713,VALID,188,VALID,0.944079,
2000-09-18, 01:33:00,VALID,917.001,VALID,0,VALID,97.2854,VALID,0.0169808,VALID,18.8616,VALID,227,VALID,0.555288,
2000-09-18, 01:34:00,VALID,916.98,VALID,0,VALID,97.2345,VALID,0.0339617,VALID,18.8519,VALID,217,VALID,0.79668,
2000-09-18, 01:35:00,VALID,916.965,VALID,0,VALID,97.293,VALID,-0.0169808,VALID,18.8455,VALID,210,VALID,0.905016,
2000-09-18, 01:36:00,VALID,916.942,VALID,0,VALID,97.4418,VALID,0,VALID,18.839,VALID,188,VALID,0.774054,
2000-09-18, 01:37:00,VALID,916.935,VALID,0,VALID,97.5422,VALID,0.0169808,VALID,18.8323,VALID,187,VALID,1.06435,
2000-09-18, 01:38:00,VALID,916.934,VALID,0,VALID,97.6719,VALID,0.0169808,VALID,18.8194,VALID,191,VALID,1.0699,
2000-09-18, 01:39:00,VALID,916.934,VALID,0,VALID,97.7406,VALID,0,VALID,18.7839,VALID,190,VALID,1.09252,
2000-09-18, 01:40:00,VALID,916.932,VALID,0,VALID,97.8589,VALID,0.0339617,VALID,18.7843,VALID,197,VALID,1.02899,
2000-09-18, 01:41:00,VALID,916.939,VALID,0,VALID,97.8996,VALID,0,VALID,18.7449,VALID,199,VALID,0.891026,
2000-09-18, 01:42:00,VALID,916.931,VALID,0,VALID,97.9568,VALID,0,VALID,18.7193,VALID,195,VALID,0.731641,
2000-09-18, 01:43:00,VALID,916.92,VALID,0,VALID,97.9797,VALID,0,VALID,18.6932,VALID,196,VALID,0.875206,
2000-09-18, 01:44:00,VALID,916.907,VALID,0,VALID,98.0038,VALID,0.0169808,VALID,18.6711,VALID,200,VALID,0.769326,
2000-09-18, 01:45:00,VALID,916.905,VALID,0,VALID,98.0344,VALID,0,VALID,18.6457,VALID,207,VALID,0.661595,
2000-09-18, 01:46:00,VALID,916.892,VALID,0,VALID,98.0827,VALID,-0.0169808,VALID,18.6291,VALID,206,VALID,0.736431,
2000-09-18, 01:47:00,VALID,916.889,VALID,0,VALID,98.159,VALID,0,VALID,18.636,VALID,200,VALID,0.990132,
2000-09-18, 01:48:00,VALID,916.893,VALID,0,VALID,98.178,VALID,0,VALID,18.6325,VALID,191,VALID,0.863076,
2000-09-18, 01:49:00,VALID,916.899,VALID,0,VALID,98.2238,VALID,0.0169808,VALID,18.6385,VALID,195,VALID,0.711538,
2000-09-18, 01:50:00,VALID,916.908,VALID,0,VALID,98.2836,VALID,0.0169808,VALID,18.6517,VALID,192,VALID,0.8125,
2000-09-18, 01:51:00,VALID,916.917,VALID,0,VALID,98.3472,VALID,0,VALID,18.6713,VALID,205,VALID,0.585526,
2000-09-18, 01:52:00,VALID,916.927,VALID,0,VALID,98.3713,VALID,0,VALID,18.6777,VALID,193,VALID,0.597245,
2000-09-18, 01:53:00,VALID,916.931,VALID,0,VALID,98.4387,VALID,-0.0169808,VALID,18.6872,VALID,188,VALID,0.744655,
2000-09-18, 01:54:00,VALID,916.935,VALID,0,VALID,98.4349,VALID,0,VALID,18.7041,VALID,189,VALID,0.778988,
2000-09-18, 01:55:00,VALID,916.931,VALID,0,VALID,98.4832,VALID,0,VALID,18.71,VALID,176,VALID,0.745066,
2000-09-18, 01:56:00,VALID,916.926,VALID,0,VALID,98.4718,VALID,0,VALID,18.7267,VALID,174,VALID,0.672492,
2000-09-18, 01:57:00,VALID,916.938,VALID,0,VALID,98.4794,VALID,0,VALID,18.6939,VALID,169,VALID,0.440304,
2000-09-18, 01:58:00,VALID,916.934,VALID,0,VALID,98.5074,VALID,0,VALID,18.7128,VALID,153,VALID,0.737305,
2000-09-18, 01:59:00,VALID,916.919,VALID,0,VALID,98.4196,VALID,0,VALID,18.7103,VALID,158,VALID,0.746711,
2000-09-18, 02:00:00,VALID,916.914,VALID,0,VALID,98.3612,VALID,0,VALID,18.6872,VALID,156,VALID,0.73602,
2000-09-18, 02:01:00,VALID,916.916,VALID,0,VALID,98.3523,VALID,0,VALID,18.6907,VALID,163,VALID,0.73088,
2000-09-18, 02:02:00,VALID,916.888,VALID,0,VALID,98.3561,VALID,0,VALID,18.7001,VALID,163,VALID,0.481497,
2000-09-18, 02:03:00,VALID,916.894,VALID,0,VALID,98.351,VALID,0,VALID,18.7066,VALID,163,VALID,0.60588,
2000-09-18, 02:04:00,VALID,916.88,VALID,0,VALID,98.3434,VALID,-0.0169808,VALID,18.7197,VALID,164,VALID,0.589433,
2000-09-18, 02:05:00,VALID,916.888,VALID,0,VALID,98.3294,VALID,-0.0169808,VALID,18.7331,VALID,169,VALID,0.489383,
2000-09-18, 02:06:00,VALID,916.884,VALID,0,VALID,98.2874,VALID,-0.0169808,VALID,18.7396,VALID,176,VALID,0.533008,
2000-09-18, 02:07:00,VALID,916.885,VALID,0,VALID,98.2938,VALID,-0.0169808,VALID,18.7553,VALID,178,VALID,0.475123,
2000-09-18, 02:08:00,VALID,916.888,VALID,0,VALID,98.3192,VALID,0,VALID,18.7846,VALID,183,VALID,0.355674,
2000-09-18, 02:09:00,VALID,916.89,VALID,0,VALID,98.2734,VALID,0.0339617,VALID,18.791,VALID,179,VALID,0.560444,
2000-09-18, 02:10:00,VALID,916.877,VALID,0,VALID,98.192,VALID,-0.0169808,VALID,18.7813,VALID,215,VALID,0.639186,
2000-09-18, 02:11:00,VALID,916.888,VALID,0,VALID,98.1183,VALID,-0.0169808,VALID,18.7813,VALID,203,VALID,0.622122,
2000-09-18, 02:12:00,VALID,916.883,VALID,0,VALID,98.1259,VALID,0,VALID,18.7813,VALID,217,VALID,0.628701,
2000-09-18, 02:13:00,VALID,916.881,VALID,0,VALID,98.103,VALID,-0.0169808,VALID,18.7809,VALID,215,VALID,0.659054,
2000-09-18, 02:14:00,VALID,916.85,VALID,0,VALID,98.1017,VALID,0,VALID,18.8039,VALID,216,VALID,0.778125,
2000-09-18, 02:15:00,VALID,916.842,VALID,0,VALID,98.0636,VALID,0,VALID,18.8134,VALID,211,VALID,0.274465,
2000-09-18, 02:16:00,VALID,916.827,VALID,0,VALID,98.0267,VALID,-0.0169808,VALID,18.8236,VALID,199,VALID,0.0966283,
2000-09-18, 02:17:00,VALID,916.81,VALID,0,VALID,97.9212,VALID,0,VALID,18.8169,VALID,198,VALID,0,
2000-09-18, 02:18:00,VALID,916.771,VALID,0,VALID,97.7597,VALID,0,VALID,18.794,VALID,198,VALID,0,
2000-09-18, 02:19:00,VALID,916.764,VALID,0,VALID,97.6122,VALID,0.0169808,VALID,18.7975,VALID,198,VALID,0,
2000-09-18, 02:20:00,VALID,916.741,VALID,0,VALID,97.457,VALID,0,VALID,18.785,VALID,165,VALID,0.174753,
2000-09-18, 02:21:00,VALID,916.711,VALID,0,VALID,97.452,VALID,0,VALID,18.7647,VALID,149,VALID,0.422828,
2000-09-18, 02:22:00,VALID,916.703,VALID,0,VALID,97.4176,VALID,0,VALID,18.7617,VALID,138,VALID,0.477148,
2000-09-18, 02:23:00,VALID,916.676,VALID,0,VALID,97.3083,VALID,-0.0169808,VALID,18.7557,VALID,113,VALID,0.51727,
2000-09-18, 02:24:00,VALID,916.657,VALID,0,VALID,97.3095,VALID,0,VALID,18.7364,VALID,102,VALID,0.591077,
2000-09-18, 02:25:00,VALID,916.635,VALID,0,VALID,97.3604,VALID,0.0169808,VALID,18.7331,VALID,98,VALID,0.851768,
2000-09-18, 02:26:00,VALID,916.62,VALID,0,VALID,97.3235,VALID,0,VALID,18.7234,VALID,112,VALID,0.955387,
2000-09-18, 02:27:00,VALID,916.605,VALID,0,VALID,97.3744,VALID,0,VALID,18.711,VALID,119,VALID,0.727796,
2000-09-18, 02:28:00,VALID,916.578,VALID,0,VALID,97.4825,VALID,0.0169808,VALID,18.6974,VALID,122,VALID,0.808183,
2000-09-18, 02:29:00,VALID,916.542,VALID,0,VALID,97.6541,VALID,0,VALID,18.7204,VALID,124,VALID,1.01542,
2000-09-18, 02:30:00,VALID,916.515,VALID,0,VALID,97.7076,VALID,0,VALID,18.7197,VALID,132,VALID,0.930273,
2000-09-18, 02:31:00,VALID,916.475,VALID,0,VALID,97.7482,VALID,-0.0339617,VALID,18.7297,VALID,142,VALID,0.935238,
2000-09-18, 02:32:00,VALID,916.444,VALID,0,VALID,97.7877,VALID,0,VALID,18.7264,VALID,150,VALID,0.731291,
2000-09-18, 02:33:00,VALID,916.398,VALID,0,VALID,97.8334,VALID,0,VALID,18.723,VALID,160,VALID,0.585321,
2000-09-18, 02:34:00,VALID,916.349,VALID,0,VALID,97.7699,VALID,-0.0169808,VALID,18.714,VALID,201,VALID,0.514391,
2000-09-18, 02:35:00,VALID,916.299,VALID,0,VALID,97.7343,VALID,-0.0169808,VALID,18.6785,VALID,195,VALID,0.678865,
2000-09-18, 02:36:00,VALID,916.255,VALID,0,VALID,97.7597,VALID,0,VALID,18.6685,VALID,197,VALID,0.679893,
2000-09-18, 02:37:00,VALID,916.208,VALID,0,VALID,97.7419,VALID,0.0169808,VALID,18.6554,VALID,214,VALID,0.891226,
2000-09-18, 02:38:00,VALID,916.175,VALID,0,VALID,97.6516,VALID,0,VALID,18.6263,VALID,205,VALID,0.992578,
2000-09-18, 02:39:00,VALID,916.167,VALID,0,VALID,97.5995,VALID,0.0169808,VALID,18.6005,VALID,194,VALID,0.598684,
2000-09-18, 02:40:00,VALID,916.136,VALID,0,VALID,97.5321,VALID,0,VALID,18.5423,VALID,193,VALID,0.727385,
2000-09-18, 02:41:00,VALID,916.139,VALID,0,VALID,97.5206,VALID,0,VALID,18.4909,VALID,191,VALID,0.781661,
2000-09-18, 02:42:00,VALID,916.124,VALID,0,VALID,97.6046,VALID,0,VALID,18.4325,VALID,197,VALID,0.780016,
2000-09-18, 02:43:00,VALID,916.114,VALID,0,VALID,97.7584,VALID,0,VALID,18.4139,VALID,201,VALID,0.771998,
2000-09-18, 02:44:00,VALID,916.106,VALID,0,VALID,97.7902,VALID,0,VALID,18.361,VALID,209,VALID,0.596423,
2000-09-18, 02:45:00,VALID,916.093,VALID,0,VALID,97.897,VALID,0.0169808,VALID,18.3456,VALID,210,VALID,0.692708,
2000-09-18, 02:46:00,VALID,916.077,VALID,0,VALID,98.0293,VALID,0,VALID,18.3324,VALID,215,VALID,1.24922,
2000-09-18, 02:47:00,VALID,916.051,VALID,0,VALID,98.1793,VALID,0,VALID,18.3227,VALID,225,VALID,1.16571,
2000-09-18, 02:48:00,VALID,916.039,VALID,0,VALID,98.2671,VALID,0,VALID,18.3366,VALID,216,VALID,1.2317,
2000-09-18, 02:49:00,VALID,916.038,VALID,0,VALID,98.379,VALID,0,VALID,18.3195,VALID,217,VALID,1.2759,
2000-09-18, 02:50:00,VALID,916.041,VALID,0,VALID,98.3751,VALID,0,VALID,18.3098,VALID,199,VALID,0.763363,
2000-09-18, 02:51:00,VALID,916.058,VALID,0,VALID,98.379,VALID,0,VALID,18.3038,VALID,193,VALID,0.732525,
2000-09-18, 02:52:00,VALID,916.073,VALID,0,VALID,98.3434,VALID,0,VALID,18.2745,VALID,189,VALID,0.795847,
2000-09-18, 02:53:00,VALID,916.092,VALID,0,VALID,98.4489,VALID,0,VALID,18.2621,VALID,176,VALID,1.05649,
2000-09-18, 02:54:00,VALID,916.096,VALID,0,VALID,98.4654,VALID,0,VALID,18.2485,VALID,182,VALID,0.666797,
2000-09-18, 02:55:00,VALID,916.115,VALID,0,VALID,98.4565,VALID,0,VALID,18.2293,VALID,170,VALID,0.469984,
2000-09-18, 02:56:00,VALID,916.122,VALID,0,VALID,98.44,VALID,0,VALID,18.2265,VALID,169,VALID,0.0923109,
2000-09-18, 02:57:00,VALID,916.129,VALID,0,VALID,98.4069,VALID,0.0169808,VALID,18.2,VALID,158,VALID,0.0051398,
2000-09-18, 02:58:00,VALID,916.134,VALID,0,VALID,98.3561,VALID,0.0169808,VALID,18.1977,VALID,161,VALID,0.11472,
2000-09-18, 02:59:00,VALID,916.149,VALID,0,VALID,98.3624,VALID,-0.0169808,VALID,18.1841,VALID,268,VALID,0.297286,
2000-09-18, 03:00:00,VALID,916.17,VALID,0,VALID,98.4095,VALID,0,VALID,18.2005,VALID,343,VALID,0.119655,
2000-09-18, 03:01:00,VALID,916.187,VALID,0,VALID,98.4362,VALID,-0.0169808,VALID,18.2224,VALID,342,VALID,0,
2000-09-18, 03:02:00,VALID,916.198,VALID,0,VALID,98.4629,VALID,0,VALID,18.2392,VALID,342,VALID,0,
2000-09-18, 03:03:00,VALID,916.218,VALID,0,VALID,98.4642,VALID,0,VALID,18.236,VALID,342,VALID,0,
2000-09-18, 03:04:00,VALID,916.21,VALID,0,VALID,98.4095,VALID,0.0169808,VALID,18.2199,VALID,342,VALID,0,
2000-09-18, 03:05:00,VALID,916.211,VALID,0,VALID,98.3179,VALID,-0.0339617,VALID,18.1846,VALID,342,VALID,0,
2000-09-18, 03:06:00,VALID,916.203,VALID,0,VALID,98.2073,VALID,0.0169808,VALID,18.1294,VALID,342,VALID,0,
2000-09-18, 03:07:00,VALID,916.196,VALID,0,VALID,98.159,VALID,0,VALID,18.1036,VALID,342,VALID,0,
2000-09-18, 03:08:00,VALID,916.189,VALID,0,VALID,98.1437,VALID,0,VALID,18.0905,VALID,331,VALID,0,
2000-09-18, 03:09:00,VALID,916.185,VALID,0,VALID,98.1412,VALID,0.0339617,VALID,18.0808,VALID,314,VALID,0,
2000-09-18, 03:10:00,VALID,916.185,VALID,0,VALID,98.1501,VALID,0.0169808,VALID,18.0676,VALID,294,VALID,0,
2000-09-18, 03:11:00,VALID,916.184,VALID,0,VALID,98.1132,VALID,0,VALID,18.0549,VALID,288,VALID,0,
2000-09-18, 03:12:00,VALID,916.187,VALID,0,VALID,98.1335,VALID,0,VALID,18.0457,VALID,288,VALID,0,
2000-09-18, 03:13:00,VALID,916.183,VALID,0,VALID,98.0611,VALID,0,VALID,18.0268,VALID,288,VALID,0,
2000-09-18, 03:14:00,VALID,916.185,VALID,0,VALID,98.0102,VALID,0,VALID,17.9906,VALID,288,VALID,0,
2000-09-18, 03:15:00,VALID,916.174,VALID,0,VALID,98.0674,VALID,0,VALID,17.9945,VALID,287,VALID,0,
2000-09-18, 03:16:00,VALID,916.186,VALID,0,VALID,97.836,VALID,-0.0169808,VALID,17.956,VALID,229,VALID,0,
2000-09-18, 03:17:00,VALID,916.181,VALID,0,VALID,97.7215,VALID,-0.0169808,VALID,17.9073,VALID,199,VALID,0,
2000-09-18, 03:18:00,VALID,916.179,VALID,0,VALID,97.7838,VALID,0,VALID,17.9008,VALID,199,VALID,0,
2000-09-18, 03:19:00,VALID,916.18,VALID,0,VALID,97.8182,VALID,-0.0169808,VALID,17.8912,VALID,199,VALID,0,
2000-09-18, 03:20:00,VALID,916.173,VALID,0,VALID,97.9161,VALID,-0.0509425,VALID,17.9041,VALID,199,VALID,0,
2000-09-18, 03:21:00,VALID,916.161,VALID,0,VALID,97.6999,VALID,0,VALID,17.8586,VALID,199,VALID,0,
2000-09-18, 03:22:00,VALID,916.139,VALID,0,VALID,97.4812,VALID,-0.0169808,VALID,17.8072,VALID,199,VALID,0,
2000-09-18, 03:23:00,VALID,916.13,VALID,0,VALID,97.56,VALID,0,VALID,17.7781,VALID,199,VALID,0,
2000-09-18, 03:24:00,VALID,916.132,VALID,0,VALID,97.6134,VALID,-0.0169808,VALID,17.7719,VALID,191,VALID,0,
2000-09-18, 03:25:00,VALID,916.13,VALID,0,VALID,97.7088,VALID,-0.0169808,VALID,17.7431,VALID,188,VALID,0,
2000-09-18, 03:26:00,VALID,916.105,VALID,0,VALID,97.9784,VALID,0,VALID,17.7751,VALID,188,VALID,0,
2000-09-18, 03:27:00,VALID,916.088,VALID,0,VALID,98.1971,VALID,0,VALID,17.81,VALID,188,VALID,0,
2000-09-18, 03:28:00,VALID,916.079,VALID,0,VALID,98.4527,VALID,-0.0339617,VALID,17.8944,VALID,188,VALID,0,
2000-09-18, 03:29:00,VALID,916.086,VALID,0,VALID,98.3472,VALID,-0.0339617,VALID,17.8946,VALID,189,VALID,0,
2000-09-18, 03:30:00,VALID,916.069,VALID,0,VALID,98.2747,VALID,0,VALID,17.8653,VALID,190,VALID,0,
2000-09-18, 03:31:00,VALID,916.077,VALID,0,VALID,98.276,VALID,-0.0169808,VALID,17.8395,VALID,190,VALID,0,
2000-09-18, 03:32:00,VALID,916.094,VALID,0,VALID,98.2798,VALID,-0.0169808,VALID,17.8365,VALID,193,VALID,0,
2000-09-18, 03:33:00,VALID,916.103,VALID,0,VALID,98.2149,VALID,-0.0509425,VALID,17.8303,VALID,194,VALID,0,
2000-09-18, 03:34:00,VALID,916.1,VALID,0,VALID,98.178,VALID,-0.0339617,VALID,17.7977,VALID,194,VALID,0,
2000-09-18, 03:35:00,VALID,916.111,VALID,0,VALID,98.103,VALID,-0.0339617,VALID,17.7758,VALID,194,VALID,0,
2000-09-18, 03:36:00,VALID,916.114,VALID,0,VALID,97.9428,VALID,0,VALID,17.7202,VALID,194,VALID,0,
2000-09-18, 03:37:00,VALID,916.104,VALID,0,VALID,97.4291,VALID,-0.0339617,VALID,17.607,VALID,190,VALID,0,
2000-09-18, 03:38:00,VALID,916.091,VALID,0,VALID,97.5461,VALID,-0.0339617,VALID,17.5879,VALID,190,VALID,0,
2000-09-18, 03:39:00,VALID,916.094,VALID,0,VALID,97.6567,VALID,0,VALID,17.5913,VALID,190,VALID,0,
2000-09-18, 03:40:00,VALID,916.087,VALID,0,VALID,97.3986,VALID,0,VALID,17.5336,VALID,190,VALID,0,
2000-09-18, 03:41:00,VALID,916.081,VALID,0,VALID,97.3223,VALID,-0.0509425,VALID,17.4852,VALID,190,VALID,0,